Home   Weather   Keflavík   Past weeks
Flag for Iceland

Past Weather in Keflavík, Iceland — Yesterday and Last 2 Weeks

Now
37 °F

Scattered showers. Broken clouds.


Feels Like: 28 °F
Forecast: N/A
Wind: 17 mph from South

Location: Keflavikurflugvollur

Current Time: Mar 23, 2019 at 5:15:12 pm

Latest Report: Mar 23, 2019 at 4:30 pm


Visibility: N/A

Pressure: 29.36 "Hg

Humidity: 93%

Dew Point: 36 °F

Location of KeflavíkLocation

Past Weather in Keflavík — Graph

°F

Keflavík Temperature Yesterday

Maximum temperature yesterday: 36 °F (at 11:00 am)
Minimum temperature yesterday: 28 °F (at 11:00 pm)
Average temperature yesterday: 33 °F

High & Low Weather Summary for the Past Weeks

 TemperatureHumidityPressure
High45 °F (Mar 18, 2:30 pm)100% (Mar 9, 5:00 am)29.68 "Hg (Mar 9, 5:00 am)
Low27 °F (Mar 21, 3:30 am)51% (Mar 20, 4:00 pm)28.77 "Hg (Mar 11, 10:00 pm)
Average34 °F83%29.26 "Hg
* Reported Mar 8 4:00 pm — Mar 23 4:00 pm, Keflavík. Weather by CustomWeather, © 2019

Note: Actual official high and low records may vary slightly from our data, if they occured in-between our weather recording intervals... More about our weather records

Advertising

Keflavík Weather History for the Previous 24 Hours

Scroll right to see more
 ConditionsComfort  
Time TempWeatherWind HumidityBarometerVisibility
4:00 pm
Sat, Mar 23
39 °FScattered showers. Broken clouds.20 mph87%29.36 "HgN/A
3:30 pm39 °FScattered showers. Broken clouds.20 mph81%29.36 "HgN/A
3:00 pm37 °FScattered showers. Broken clouds.16 mph93%29.39 "HgN/A
2:30 pm37 °FLight rain. Broken clouds.20 mph93%29.39 "HgN/A
2:00 pm37 °FScattered showers. Broken clouds.18 mph93%29.39 "HgN/A
1:30 pm37 °FScattered showers. Broken clouds.15 mph87%29.42 "HgN/A
1:01 pm34 °FScattered showers. Mostly cloudy.12 mph100%29.42 "Hg1 mi
12:30 pm34 °FLight rain. Mostly cloudy.12 mph100%29.45 "Hg6 mi
12:00 pm34 °FLight rain. Mostly cloudy.15 mph100%29.45 "Hg6 mi
11:30 am34 °FLight snow. Mostly cloudy.16 mph100%29.45 "Hg3 mi
11:00 am32 °FLight snow. Mostly cloudy.18 mph100%29.47 "Hg2 mi
10:30 am32 °FLight snow. Mostly cloudy.18 mph100%29.50 "Hg2 mi
10:00 am32 °FLight snow. Low clouds.25 mph100%29.50 "Hg1 mi
9:30 am32 °FSnow. Low clouds.15 mph100%29.53 "Hg1 mi
9:00 am32 °FSnow. Mostly cloudy.13 mph80%29.53 "Hg2 mi
8:30 am32 °FScattered showers. More clouds than sun.10 mph69%29.56 "HgN/A
8:00 am32 °FScattered showers. Broken clouds.9 mph69%29.56 "HgN/A
7:00 am30 °FPassing clouds.2 mph69%29.59 "HgN/A
6:30 am32 °FPassing clouds.7 mph64%29.59 "HgN/A
6:00 am32 °FPassing clouds.14 mph64%29.62 "HgN/A
5:30 am32 °FPartly cloudy.15 mph64%29.59 "HgN/A
5:00 am32 °FPassing clouds.20 mph64%29.59 "HgN/A
4:30 am32 °FPassing clouds.23 mph64%29.59 "HgN/A
4:00 am32 °FPassing clouds.31 mph51%29.59 "HgN/A
3:30 am32 °FPassing clouds.31 mph60%29.56 "HgN/A
3:00 am32 °FPassing clouds.33 mph55%29.53 "HgN/A
2:30 am30 °FSnow flurries. Partly cloudy.37 mph86%29.50 "Hg3 mi
2:00 am28 °FSnow flurries. Partly cloudy.45 mph100%29.47 "Hg1 mi
1:30 am30 °FSnow. Ice fog.37 mph86%29.47 "Hg1 mi
1:00 am28 °FSnow. Ice fog.37 mph93%29.45 "Hg1 mi
12:30 am30 °FSnow flurries. Passing clouds.38 mph80%29.42 "Hg5 mi
12:00 am28 °FSnow showers. Passing clouds.35 mph93%29.39 "Hg1 mi
11:30 pm
Fri, Mar 22
30 °FLight mixture of precip. Partly cloudy.29 mph69%29.36 "HgN/A
11:00 pm28 °FHeavy mixture of precip. Passing clouds.29 mph80%29.36 "HgN/A
10:30 pm30 °FPartly cloudy.32 mph64%29.33 "HgN/A
10:00 pm30 °FPassing clouds.35 mph55%29.30 "HgN/A
9:30 pm30 °FPartly cloudy.36 mph51%29.30 "HgN/A
9:00 pm30 °FPartly cloudy.37 mph64%29.27 "HgN/A
8:30 pm30 °FPassing clouds.38 mph64%29.24 "HgN/A
8:00 pm32 °FPartly cloudy.40 mph64%29.21 "HgN/A
7:30 pm32 °FScattered showers. Mostly cloudy.41 mph69%29.18 "HgN/A
7:00 pm34 °FScattered showers. Broken clouds.43 mph70%29.12 "HgN/A
6:30 pm34 °FScattered showers. Mostly cloudy.40 mph75%29.12 "HgN/A
6:00 pm34 °FScattered showers. Mostly cloudy.40 mph70%29.09 "HgN/A
5:30 pm34 °FMostly cloudy.40 mph81%29.06 "HgN/A
5:00 pm32 °FSnow flurries. Mostly cloudy.39 mph93%29.03 "Hg1 mi
Weather by CustomWeather, © 2019

See weather overview